Location: Star Hoppers Observatory
(42.7905°N, 83.6127°W)
Time: 12:55:36
(UTC-04:00)

Amateur Radio Satellites - All Passes

Search period start: 01 July 2015 12:25
Search period end: 02 July 2015 12:25
Location: Star Hoppers Observatory, 42.7905°N, 83.6127°W

Satellite Date Start Highest point End Downlink Frequencies (MHz)
Time Altitude Azimuth
AIST 2 01 Jul 12:27:10 12:28:37 11° 327° (NNW) 12:29:55 435.215
QB50P1 01 Jul 12:29:22 12:33:20 37° 263° (W) 12:37:18 145.935-145.965
ZACube-1 01 Jul 12:35:40 12:39:03 23° 291° (WNW) 12:42:21 437.345
50 SAT 01 Jul 12:36:24 12:40:18 88° 100° (E) 12:44:14 437.505
UNISAT 6 01 Jul 12:37:05 12:39:34 14° 270° (W) 12:41:51 437.425
AISAT 01 Jul 12:44:26 12:48:53 88° 111° (ESE) 12:53:17 437.250
NANOSAT C BR1 01 Jul 12:45:33 12:49:08 26° 266° (W) 12:52:40 145.865
UKube-1 01 Jul 12:48:36 12:52:50 51° 288° (WNW) 12:57:00 .
VERMONT LUNAR 01 Jul 12:49:05 12:52:11 54° 185° (S) 12:55:18 437.305
DUCHIFAT 1 01 Jul 12:54:06 12:57:27 21° 267° (W) 13:00:40 145.980
POLYITAN 1 01 Jul 12:54:37 12:57:52 20° 267° (W) 13:01:00 437.675
SPROUT 01 Jul 12:54:43 12:57:33 18° 91° (E) 13:00:31 437.525
Oscar 11 01 Jul 12:54:52 12:55:50 10° 298° (WNW) 12:56:35 145.826/435.025
Cosmos 2499 01 Jul 13:00:26 13:07:19 52° 284° (WNW) 13:14:14 435.465 / 435.565
HO-68 01 Jul 13:00:53 13:03:20 12° 311° (NW) 13:05:24 435.675
ESTCUBE 1 01 Jul 13:03:20 13:07:55 88° 103° (ESE) 13:12:28 437.505/2401.250
CUBEBUG 1 01 Jul 13:13:51 13:18:16 83° 285° (WNW) 13:22:36 437.445
FUNcube-1 01 Jul 13:16:09 13:16:34 10° 298° (WNW) 13:16:45 145.935
HUMSAT D 01 Jul 13:24:43 13:27:20 16° 294° (WNW) 13:29:49 437.325/437.525
BUGSAT 1 01 Jul 13:28:16 13:30:38 14° 270° (W) 13:32:49 437.445
VELOX 1 01 Jul 13:35:27 13:39:18 29° 292° (WNW) 13:43:03 145.980
Oscar 19 01 Jul 13:38:17 13:43:08 44° 70° (ENE) 13:48:00 437.125/150
ISS 01 Jul 13:42:23 13:44:37 17° 0° (N) 13:46:50 145.825
ITAMSAT 1 01 Jul 13:44:07 13:47:06 16° 61° (ENE) 13:50:17 435.822/435.867
TISAT 1 01 Jul 13:49:46 13:53:48 45° 99° (E) 13:57:49 437.305
PHONESAT 2.4 01 Jul 13:52:39 13:56:04 60° 181° (S) 13:59:31 2401.200-2431.200
YUBILEINY 01 Jul 13:57:17 14:02:43 18° 58° (ENE) 14:08:34 435.215
RS-15 01 Jul 14:09:31 14:20:33 47° 249° (WSW) 14:31:46 29.354- 29.394
BEESAT 01 Jul 14:13:27 14:15:59 15° 89° (E) 14:18:45 436.000
AO-7 01 Jul 14:14:15 14:18:14 15° 45° (NE) 14:22:38 29.400- 29.500
AISAT 01 Jul 14:24:01 14:24:50 10° 300° (WNW) 14:25:23 437.250
VERMONT LUNAR 01 Jul 14:26:09 14:28:50 25° 201° (SSW) 14:31:31 437.305
SWISSCUBE 01 Jul 14:27:37 14:31:18 22° 92° (E) 14:35:06 437.505
SPROUT 01 Jul 14:29:49 14:33:53 41° 288° (WNW) 14:37:52 437.525
ITUPSAT 1 01 Jul 14:31:12 14:34:51 22° 92° (E) 14:38:37 437.325
ESTCUBE 1 01 Jul 14:42:56 14:44:09 11° 299° (WNW) 14:45:08 437.505/2401.250
Gurwin Techsat 1B 01 Jul 14:54:23 14:59:38 66° 73° (ENE) 15:04:56 435.225
JAS-2 01 Jul 14:54:34 14:57:49 18° 61° (ENE) 15:01:19 435.910
Oscar 19 01 Jul 15:18:35 15:22:42 23° 267° (W) 15:26:43 437.125/150
ISS 01 Jul 15:18:53 15:21:45 28° 20° (NNE) 15:24:38 145.825
ITAMSAT 1 01 Jul 15:20:50 15:26:03 75° 256° (WSW) 15:31:19 435.822/435.867
TISAT 1 01 Jul 15:26:31 15:29:15 17° 295° (WNW) 15:31:51 437.305
PHONESAT 2.4 01 Jul 15:30:39 15:33:53 36° 197° (SSW) 15:37:09 2401.200-2431.200
STARS 01 Jul 15:48:19 15:50:26 14° 89° (E) 15:52:47 437.465
BEESAT 01 Jul 15:49:35 15:54:20 63° 287° (WNW) 15:59:04 436.000
YUBILEINY 01 Jul 15:52:24 16:01:12 83° 81° (E) 16:10:01 435.215
AO-7 01 Jul 16:01:23 16:09:28 59° 66° (ENE) 16:17:41 29.400- 29.500
SWISSCUBE 01 Jul 16:04:49 16:09:21 41° 290° (WNW) 16:13:50 437.505
ITUPSAT 1 01 Jul 16:08:24 16:12:58 42° 290° (WNW) 16:17:28 437.325
PCSat 01 Jul 16:11:39 16:14:50 17° 106° (ESE) 16:18:15 145.827
Cosmos 2491 01 Jul 16:12:41 16:21:11 57° 91° (E) 16:29:46 435.465 / 435.565
HORYU 2 01 Jul 16:21:35 16:25:57 68° 74° (ENE) 16:30:22 437.375
KKS-1 01 Jul 16:22:23 16:26:43 52° 100° (E) 16:31:03 437.445
BEESAT 3 01 Jul 16:25:07 16:27:37 16° 39° (NE) 16:30:12 437.485
AIST 1 01 Jul 16:26:17 16:30:10 32° 91° (E) 16:34:07
BEESAT 2 01 Jul 16:32:29 16:34:55 15° 38° (NE) 16:37:26 435.950
Cosmos 2504 01 Jul 16:35:41 16:40:38 19° 62° (ENE) 16:46:09 435.465 / 435.565
Gurwin Techsat 1B 01 Jul 16:36:48 16:40:11 16° 271° (W) 16:43:21 435.225
JAS-2 01 Jul 16:37:22 16:42:29 61° 259° (W) 16:47:46 435.910
ISS 01 Jul 16:55:08 16:58:18 50° 219° (SW) 17:01:26 145.825
PHONESAT 2.4 01 Jul 17:10:03 17:11:23 12° 211° (SSW) 17:12:36 2401.200-2431.200
STARS 01 Jul 17:23:01 17:27:19 56° 287° (WNW) 17:31:36 437.465
SO-50 01 Jul 17:26:36 17:29:17 16° 110° (ESE) 17:32:12 436.795
AIST 2 01 Jul 17:28:28 17:31:02 16° 38° (NE) 17:33:40 435.215
CUTE-I 01 Jul 17:33:39 17:36:41 16° 60° (ENE) 17:39:56 437.470
O/OREOS (USA 219) 01 Jul 17:39:40 17:42:53 19° 53° (NE) 17:46:12 437.305
YUBILEINY 01 Jul 17:50:55 17:57:07 21° 280° (W) 18:02:54 435.215
MOZHAYETS 4 01 Jul 17:51:40 17:56:11 49° 99° (E) 18:00:42
PCSat 01 Jul 17:52:19 17:57:43 72° 301° (WNW) 18:03:10 145.827
AO-7 01 Jul 17:55:24 18:02:46 33° 265° (W) 18:09:59 29.400- 29.500
KKS-1 01 Jul 18:00:09 18:02:59 16° 296° (WNW) 18:05:40 437.445
HORYU 2 01 Jul 18:01:29 18:03:09 12° 272° (W) 18:04:34 437.375
BEESAT 3 01 Jul 18:02:00 18:06:03 70° 239° (WSW) 18:10:02 437.485
AIST 1 01 Jul 18:04:22 18:07:54 23° 289° (WNW) 18:11:22
Cubesat XI-IV 01 Jul 18:05:02 18:09:33 29° 66° (ENE) 18:14:10 437.490
BEESAT 2 01 Jul 18:09:24 18:13:31 74° 237° (WSW) 18:17:31 435.950
Cosmos 2491 01 Jul 18:10:40 18:18:33 34° 292° (WNW) 18:26:17 435.465 / 435.565
Cosmos 2504 01 Jul 18:27:29 18:35:08 88° 263° (W) 18:43:22 435.465 / 435.565
SO-50 01 Jul 19:04:35 19:09:18 68° 307° (NW) 19:14:12 436.795
AIST 2 01 Jul 19:05:56 19:10:10 76° 239° (WSW) 19:14:17 435.215
CUTE-I 01 Jul 19:10:48 19:16:10 78° 256° (WSW) 19:21:36 437.470
O/OREOS (USA 219) 01 Jul 19:18:15 19:22:37 49° 252° (WSW) 19:26:59 437.305
STRAND 1 01 Jul 19:23:23 19:25:52 14° 88° (E) 19:28:38 437.568
MOZHAYETS 4 01 Jul 19:29:48 19:33:05 19° 295° (WNW) 19:36:13
PCSat 01 Jul 19:39:03 19:42:12 15° 324° (NW) 19:45:11 145.827
Cubesat XI-IV 01 Jul 19:44:30 19:49:31 39° 263° (W) 19:54:33 437.490
CUBESAT XI-V 01 Jul 19:46:04 19:50:46 66° 101° (E) 19:55:25 437.345
PRISM 01 Jul 19:49:03 19:52:10 20° 93° (E) 19:55:22 437.425
HO-68 01 Jul 19:53:05 19:58:36 26° 59° (ENE) 20:04:18 435.675
CUSAT 1 01 Jul 19:55:41 19:58:18 34° 75° (ENE) 20:00:42 437.405
GOMX 1 01 Jul 19:57:55 20:01:52 23° 68° (ENE) 20:05:47 467.674
BRITE-PL 01 Jul 20:04:32 20:09:43 43° 72° (ENE) 20:14:40 437.365/2234.400
Cosmos 2504 01 Jul 20:23:07 20:27:43 16° 279° (W) 20:31:59 435.465 / 435.565
SEEDS 01 Jul 20:26:30 20:29:03 16° 66° (ENE) 20:31:45 437.485
GONETS M04 01 Jul 20:28:10 20:35:56 36° 69° (ENE) 20:43:48
CINEMA 3 01 Jul 20:31:53 20:33:54 13° 64° (ENE) 20:36:05 145.822/145.860
DANDE 01 Jul 20:36:58 20:40:04 82° 258° (WSW) 20:42:42 436.750
AAUSAT CUBESAT 2 01 Jul 20:45:34 20:48:18 18° 66° (ENE) 20:51:09 437.432
SO-50 01 Jul 20:48:08 20:50:50 14° 328° (NNW) 20:53:27 436.795
DOVE 4 01 Jul 20:56:49 21:01:36 51° 73° (ENE) 21:06:08 437.250
Cosmos 2499 01 Jul 21:00:26 21:01:02 10° 54° (NE) 21:02:16 435.465 / 435.565
STRAND 1 01 Jul 21:00:34 21:05:44 73° 287° (WNW) 21:10:51 437.568
UWE-3 01 Jul 21:04:47 21:05:11 10° 63° (ENE) 21:05:48 435.000/436.395/437.385
CUTE 1.7 + AOD 2 01 Jul 21:06:56 21:11:01 53° 74° (ENE) 21:15:09 437.475
M-CUBED/EXP-1 PRIME 01 Jul 21:07:40 21:08:58 11° 95° (E) 21:10:33 437.505
COMPASS 1 01 Jul 21:07:40 21:11:25 35° 71° (ENE) 21:15:14 437.405
CANX-2 01 Jul 21:09:41 21:13:51 64° 74° (ENE) 21:18:02 2200.000
DELFI C3 01 Jul 21:23:50 21:25:58 15° 65° (ENE) 21:28:17 145.870
PRISM 01 Jul 21:23:52 21:27:44 35° 290° (WNW) 21:31:32 437.425
CUBESAT XI-V 01 Jul 21:25:00 21:27:43 15° 297° (WNW) 21:30:13 437.345
GOMX 1 01 Jul 21:34:45 21:39:48 45° 262° (W) 21:44:33 467.674
HO-68 01 Jul 21:38:41 21:45:49 69° 257° (WSW) 21:52:58 435.675
CUBEBUG 2 01 Jul 21:39:45 21:43:30 30° 70° (ENE) 21:47:15 437.445
BRITE-PL 01 Jul 21:43:41 21:48:21 27° 267° (W) 21:52:44 437.365/2234.400
ZACube-1 01 Jul 21:56:06 21:59:40 28° 70° (ENE) 22:03:16 437.345
SEEDS 01 Jul 22:00:30 22:04:31 46° 262° (W) 22:08:34 437.485
CINEMA 3 01 Jul 22:06:07 22:10:42 67° 259° (W) 22:15:05 145.822/145.860
AUBIESAT-1 01 Jul 22:08:54 22:12:53 46° 105° (ESE) 22:17:10 437.475
UKube-1 01 Jul 22:09:54 22:12:24 16° 64° (ENE) 22:15:04 .
Oscar 11 01 Jul 22:11:12 22:15:28 70° 75° (ENE) 22:19:46 145.826/435.025
AAUSAT CUBESAT 2 01 Jul 22:19:42 22:23:38 41° 263° (W) 22:27:34 437.432
GONETS M04 01 Jul 22:24:47 22:33:09 53° 270° (W) 22:41:24
ESTCUBE 1 01 Jul 22:31:08 22:31:47 10° 60° (ENE) 22:32:42 437.505/2401.250
FUNcube-1 01 Jul 22:32:58 22:37:10 69° 76° (ENE) 22:41:20 145.935
DOVE 4 01 Jul 22:36:10 22:39:37 18° 269° (W) 22:42:48 437.250
UWE-3 01 Jul 22:36:53 22:41:11 81° 258° (WSW) 22:45:24 435.000/436.395/437.385
CUBEBUG 1 01 Jul 22:38:45 22:39:05 10° 61° (ENE) 22:39:40 437.445
M-CUBED/EXP-1 PRIME 01 Jul 22:40:04 22:44:09 70° 290° (WNW) 22:48:33 437.505
HUMSAT D 01 Jul 22:40:31 22:44:16 36° 71° (ENE) 22:48:03 437.325/437.525
STRAND 1 01 Jul 22:43:12 22:44:07 10° 303° (WNW) 22:44:45 437.568
COMPASS 1 01 Jul 22:44:07 22:47:13 20° 268° (W) 22:50:15 437.405
CUTE 1.7 + AOD 2 01 Jul 22:45:09 22:47:20 13° 271° (W) 22:49:19 437.475
Cosmos 2499 01 Jul 22:48:39 22:56:13 57° 77° (ENE) 23:04:23 435.465 / 435.565
CANX-2 01 Jul 22:48:55 22:50:17 11° 273° (W) 22:51:26 2200.000
DELFI C3 01 Jul 22:56:49 23:00:42 48° 261° (W) 23:04:36 145.870
VELOX 1 01 Jul 22:57:21 23:01:09 28° 68° (ENE) 23:05:01 145.980
CUBEBUG 2 01 Jul 23:16:40 23:20:14 24° 266° (W) 23:23:41 437.445
DX 1 01 Jul 23:18:01 23:22:26 86° 72° (ENE) 23:26:51 434.975-435.025
50 SAT 01 Jul 23:21:09 23:24:52 52° 74° (ENE) 23:28:37 437.505
ZACube-1 01 Jul 23:32:26 23:36:01 25° 266° (W) 23:39:30 437.345
HO-68 01 Jul 23:33:04 23:35:04 11° 277° (W) 23:36:27 435.675
ANTELSAT 01 Jul 23:33:43 23:37:29 29° 95° (E) 23:41:23 437.575/2403.000
QB50P2 01 Jul 23:34:29 23:35:54 12° 88° (E) 23:37:34 145.880/145.840
POPSAT HIP 1 01 Jul 23:36:01 23:37:26 12° 88° (E) 23:39:05 437.405
AISAT 01 Jul 23:42:37 23:47:07 87° 76° (ENE) 23:51:37 437.250
UKube-1 01 Jul 23:43:53 23:48:09 54° 259° (W) 23:52:26 .
AUBIESAT-1 01 Jul 23:44:29 23:47:24 19° 298° (WNW) 23:50:20 437.475
TIGRISAT 01 Jul 23:47:18 23:51:21 38° 98° (E) 23:55:30 435.000
SPROUT 01 Jul 23:50:10 23:52:50 17° 65° (ENE) 23:55:37 437.525
Oscar 11 01 Jul 23:51:13 23:52:14 10° 273° (W) 23:52:58 145.826/435.025
ESTCUBE 1 02 Jul 00:03:28 00:08:00 89° 77° (ENE) 00:12:36 437.505/2401.250
CUBEBUG 1 02 Jul 00:10:21 00:14:48 89° 79° (E) 00:19:16 437.445
FUNcube-1 02 Jul 00:13:24 00:14:03 10° 273° (W) 00:14:24 145.935
QB50P1 02 Jul 00:13:34 00:17:18 31° 96° (E) 00:21:04 145.935-145.965
HUMSAT D 02 Jul 00:17:11 00:20:10 19° 268° (W) 00:23:02 437.325/437.525
UNISAT 6 02 Jul 00:25:31 00:29:53 78° 284° (WNW) 00:34:19 437.425
NANOSAT C BR1 02 Jul 00:28:48 00:32:51 45° 99° (E) 00:36:53 145.865
VELOX 1 02 Jul 00:33:44 00:37:40 29° 265° (W) 00:41:32 145.980
DUCHIFAT 1 02 Jul 00:36:47 00:40:55 55° 100° (E) 00:45:01 145.980
POLYITAN 1 02 Jul 00:37:51 00:42:02 60° 100° (E) 00:46:12 437.675
Cosmos 2499 02 Jul 00:42:27 00:49:04 30° 274° (W) 00:55:51 435.465 / 435.565
TISAT 1 02 Jul 00:42:31 00:46:27 38° 71° (ENE) 00:50:25 437.305
PCSat 02 Jul 00:56:53 01:00:49 20° 41° (NE) 01:04:52 145.827
50 SAT 02 Jul 00:58:32 00:59:54 11° 271° (W) 01:01:03 437.505
BUGSAT 1 02 Jul 01:07:23 01:11:30 81° 103° (ESE) 01:15:31 437.445
QB50P2 02 Jul 01:08:06 01:12:16 61° 287° (WNW) 01:16:26 145.880/145.840
POPSAT HIP 1 02 Jul 01:09:38 01:13:48 61° 285° (WNW) 01:17:55 437.405
ANTELSAT 02 Jul 01:10:32 01:14:14 27° 291° (WNW) 01:17:55 437.575/2403.000
BEESAT 02 Jul 01:20:38 01:23:58 20° 64° (ENE) 01:27:26 436.000
SPROUT 02 Jul 01:24:22 01:28:34 49° 261° (W) 01:32:46 437.525
TIGRISAT 02 Jul 01:24:38 01:27:54 21° 293° (WNW) 01:31:07 435.000
SWISSCUBE 02 Jul 01:34:55 01:38:57 29° 67° (ENE) 01:43:06 437.505
ITUPSAT 1 02 Jul 01:38:46 01:42:48 28° 67° (ENE) 01:46:55 437.325
QB50P1 02 Jul 01:49:39 01:53:03 23° 292° (WNW) 01:56:20 145.935-145.965
Oscar 19 02 Jul 01:50:28 01:53:01 14° 88° (E) 01:55:49 437.125/150
SO-50 02 Jul 01:55:29 01:59:24 23° 40° (NE) 02:03:22 436.795
NANOSAT C BR1 02 Jul 02:05:37 02:08:22 17° 295° (WNW) 02:10:59 145.865
DUCHIFAT 1 02 Jul 02:14:00 02:16:19 14° 296° (WNW) 02:18:29 145.980
POLYITAN 1 02 Jul 02:15:22 02:17:30 13° 296° (WNW) 02:19:27 437.675
TISAT 1 02 Jul 02:19:18 02:22:24 19° 268° (W) 02:25:23 437.305
Cosmos 2491 02 Jul 02:22:23 02:29:39 29° 65° (ENE) 02:37:05 435.465 / 435.565
RS-15 02 Jul 02:23:47 02:32:20 29° 105° (ESE) 02:41:27 29.354- 29.394
PCSat 02 Jul 02:39:28 02:44:54 77° 242° (WSW) 02:50:18 145.827
STARS 02 Jul 02:46:18 02:48:43 15° 64° (ENE) 02:51:17 437.465
BEESAT 02 Jul 02:56:51 03:01:29 50° 261° (W) 03:06:08 436.000
YUBILEINY 02 Jul 03:01:28 03:06:44 19° 79° (E) 03:12:28 435.215
Gurwin Techsat 1B 02 Jul 03:10:23 03:14:37 24° 92° (E) 03:18:58 435.225
SWISSCUBE 02 Jul 03:12:26 03:16:45 32° 264° (W) 03:21:02 437.505
ITUPSAT 1 02 Jul 03:16:16 03:20:36 33° 264° (W) 03:24:56 437.325
KKS-1 02 Jul 03:21:07 03:25:27 53° 73° (ENE) 03:29:49 437.445
Oscar 19 02 Jul 03:27:53 03:33:00 71° 287° (WNW) 03:38:06 437.125/150
ITAMSAT 1 02 Jul 03:33:07 03:37:56 37° 97° (E) 03:42:45 435.822/435.867
SO-50 02 Jul 03:35:28 03:40:24 62° 239° (WSW) 03:45:11 436.795
JAS-2 02 Jul 03:44:41 03:48:58 19° 89° (E) 03:53:53 435.910
AO-7 02 Jul 04:04:00 04:08:36 16° 86° (E) 04:13:45 29.400- 29.500
AIST 1 02 Jul 04:09:31 04:13:56 83° 261° (W) 04:18:15
HORYU 2 02 Jul 04:13:58 04:15:38 12° 88° (E) 04:17:33 437.375
Cosmos 2491 02 Jul 04:18:38 04:27:18 65° 267° (W) 04:35:50 435.465 / 435.565
STARS 02 Jul 04:20:24 04:24:45 58° 259° (W) 04:29:06 437.465
RS-15 02 Jul 04:32:45 04:43:42 78° 307° (NW) 04:55:02 29.354- 29.394
Gurwin Techsat 1B 02 Jul 04:49:47 04:54:50 44° 290° (WNW) 04:59:50 435.225
YUBILEINY 02 Jul 04:53:47 05:02:30 89° 278° (W) 05:11:16 435.215
MOZHAYETS 4 02 Jul 04:54:15 04:58:39 50° 73° (ENE) 05:03:08
KKS-1 02 Jul 04:59:47 05:02:28 15° 270° (W) 05:04:59 437.445
ITAMSAT 1 02 Jul 05:12:49 05:17:20 29° 294° (WNW) 05:21:45 435.822/435.867
Cosmos 2504 02 Jul 05:19:58 05:21:59 12° 78° (ENE) 05:24:31 435.465 / 435.565
JAS-2 02 Jul 05:28:12 05:34:39 80° 285° (WNW) 05:41:54 435.910
HORYU 2 02 Jul 05:48:22 05:52:48 66° 286° (WNW) 05:57:14 437.375
AO-7 02 Jul 05:54:25 06:02:51 82° 107° (ESE) 06:11:14 29.400- 29.500
Cosmos 2491 02 Jul 06:19:46 06:22:35 11° 286° (WNW) 06:24:42 435.465 / 435.565
MOZHAYETS 4 02 Jul 06:33:15 06:36:14 17° 270° (W) 06:39:06
STRAND 1 02 Jul 06:39:31 06:43:28 23° 65° (ENE) 06:47:33 437.568
PRISM 02 Jul 06:40:20 06:43:06 18° 65° (ENE) 06:46:01 437.425
RS-15 02 Jul 06:48:47 06:58:19 31° 336° (NNW) 07:08:03 29.354- 29.394
CUBESAT XI-V 02 Jul 06:49:55 06:54:35 69° 75° (ENE) 06:59:18 437.345
YUBILEINY 02 Jul 06:54:41 07:00:51 20° 301° (WNW) 07:06:36 435.215
Cosmos 2504 02 Jul 07:07:03 07:14:17 77° 96° (E) 07:21:27 435.465 / 435.565
JAS-2 02 Jul 07:15:22 07:19:06 16° 300° (WNW) 07:22:41 435.910
CUTE-I 02 Jul 07:27:19 07:32:19 39° 97° (E) 07:37:21 437.470
AO-7 02 Jul 07:48:18 07:54:52 26° 306° (NW) 08:01:11 29.400- 29.500
O/OREOS (USA 219) 02 Jul 07:53:44 07:56:28 17° 101° (E) 07:59:21 437.305
BEESAT 3 02 Jul 07:56:28 07:59:05 17° 112° (ESE) 08:01:50 437.485
M-CUBED/EXP-1 PRIME 02 Jul 07:57:10 07:58:44 13° 60° (ENE) 08:00:27 437.505
Cubesat XI-IV 02 Jul 08:00:27 08:05:51 79° 102° (ESE) 08:11:14 437.490
DANDE 02 Jul 08:04:44 08:09:29 20° 91° (E) 08:13:52 436.750
BEESAT 2 02 Jul 08:04:55 08:07:28 17° 112° (ESE) 08:10:11 435.950
PRISM 02 Jul 08:14:18 08:18:15 42° 261° (W) 08:22:16 437.425
STRAND 1 02 Jul 08:17:28 08:22:24 46° 261° (W) 08:27:23 437.568
CUBESAT XI-V 02 Jul 08:30:24 08:32:36 13° 273° (W) 08:34:35 437.345
CANX-2 02 Jul 08:56:47 08:57:35 11° 87° (E) 08:58:41 2200.000
AUBIESAT-1 02 Jul 08:58:11 09:01:26 63° 70° (ENE) 09:04:50 437.475
DOVE 4 02 Jul 08:58:12 08:58:33 10° 87° (E) 08:59:10 437.250
CUSAT 1 02 Jul 09:00:05 09:06:53 67° 99° (E) 09:12:06 437.405
Cosmos 2504 02 Jul 09:03:35 09:08:40 19° 298° (WNW) 09:13:26 435.465 / 435.565
AIST 2 02 Jul 09:05:31 09:08:28 19° 112° (ESE) 09:11:32 435.215
HO-68 02 Jul 09:06:27 09:11:41 22° 90° (E) 09:17:10 435.675
RS-15 02 Jul 09:06:44 09:15:33 25° 10° (N) 09:24:46 29.354- 29.394
CUTE-I 02 Jul 09:07:41 09:12:16 29° 294° (WNW) 09:16:45 437.470
M-CUBED/EXP-1 PRIME 02 Jul 09:30:12 09:33:18 37° 257° (WSW) 09:36:28 437.505
GONETS M04 02 Jul 09:30:21 09:38:13 40° 87° (E) 09:46:10
O/OREOS (USA 219) 02 Jul 09:31:12 09:35:32 48° 297° (WNW) 09:39:53 437.305
BEESAT 3 02 Jul 09:32:45 09:36:43 48° 308° (NW) 09:40:43 437.485
ISS 02 Jul 09:34:39 09:37:30 29° 138° (SE) 09:40:23 145.825
GOMX 1 02 Jul 09:36:06 09:40:13 47° 98° (E) 09:44:13 467.674
BEESAT 2 02 Jul 09:41:11 09:45:12 50° 308° (NW) 09:49:14 435.950
Cubesat XI-IV 02 Jul 09:42:10 09:45:22 16° 300° (WNW) 09:48:21 437.490
SEEDS 02 Jul 09:44:08 09:47:43 26° 94° (E) 09:51:21 437.485
DANDE 02 Jul 09:44:55 09:52:30 75° 281° (W) 09:58:21 436.750
BRITE-PL 02 Jul 09:47:20 09:51:46 75° 284° (WNW) 09:55:55 437.365/2234.400
UNISAT 6 02 Jul 09:52:37 09:53:20 10° 62° (ENE) 09:54:16 437.425
Oscar 11 02 Jul 09:59:41 10:01:19 12° 88° (E) 10:03:12 145.826/435.025
CINEMA 3 02 Jul 10:00:35 10:03:57 24° 94° (E) 10:07:25 145.822/145.860
AAUSAT CUBESAT 2 02 Jul 10:01:48 10:05:25 28° 95° (E) 10:09:05 437.432
VERMONT LUNAR 02 Jul 10:13:26 10:16:18 34° 163° (SSE) 10:19:12 437.305
FUNcube-1 02 Jul 10:22:21 10:23:49 12° 88° (E) 10:25:31 145.935
COMPASS 1 02 Jul 10:25:13 10:29:25 60° 100° (E) 10:33:36 437.405
UWE-3 02 Jul 10:26:41 10:29:31 18° 92° (E) 10:32:30 435.000/436.395/437.385
CUTE 1.7 + AOD 2 02 Jul 10:26:50 10:31:08 84° 284° (WNW) 10:35:25 437.475
QB50P2 02 Jul 10:29:04 10:30:17 11° 62° (ENE) 10:31:43 145.880/145.840
CANX-2 02 Jul 10:29:48 10:34:05 70° 284° (WNW) 10:38:20 2200.000
POPSAT HIP 1 02 Jul 10:30:28 10:31:41 11° 62° (ENE) 10:33:07 437.405
DOVE 4 02 Jul 10:32:46 10:36:55 65° 285° (WNW) 10:41:01 437.250
ANTELSAT 02 Jul 10:33:50 10:37:28 28° 69° (ENE) 10:41:09 437.575/2403.000
DELFI C3 02 Jul 10:35:36 10:38:37 20° 92° (E) 10:41:44 145.870
AIST 2 02 Jul 10:42:37 10:46:45 47° 309° (NW) 10:50:54 435.215
CUSAT 1 02 Jul 10:45:14 10:49:40 19° 290° (WNW) 10:53:14 437.405
TIGRISAT 02 Jul 10:47:02 10:50:58 37° 71° (ENE) 10:54:55 435.000
HO-68 02 Jul 10:53:00 11:00:08 71° 289° (WNW) 11:07:14 435.675
CUBEBUG 2 02 Jul 11:05:40 11:09:49 61° 101° (E) 11:14:02 437.445
QB50P1 02 Jul 11:07:10 11:10:45 27° 69° (ENE) 11:14:22 145.935-145.965
DX 1 02 Jul 11:07:15 11:09:21 14° 89° (E) 11:11:41 434.975-435.025
ISS 02 Jul 11:10:45 11:13:50 39° 335° (NNW) 11:16:55 145.825
GOMX 1 02 Jul 11:15:24 11:18:01 16° 296° (WNW) 11:20:26 467.674
ZACube-1 02 Jul 11:19:07 11:23:14 52° 99° (E) 11:27:25 437.345
SEEDS 02 Jul 11:19:49 11:23:28 28° 291° (WNW) 11:27:04 437.485
RS-15 02 Jul 11:20:39 11:31:45 49° 41° (NE) 11:43:24 29.354- 29.394
NANOSAT C BR1 02 Jul 11:22:01 11:25:55 38° 71° (ENE) 11:29:52 145.865
UNISAT 6 02 Jul 11:25:15 11:29:34 81° 257° (WSW) 11:33:52 437.425
GONETS M04 02 Jul 11:26:32 11:34:58 47° 287° (WNW) 11:43:20
Cosmos 2499 02 Jul 11:27:17 11:33:45 41° 89° (E) 11:40:20 435.465 / 435.565
DUCHIFAT 1 02 Jul 11:29:43 11:33:46 45° 72° (ENE) 11:37:49 145.980
UKube-1 02 Jul 11:31:04 11:34:28 23° 94° (E) 11:37:55 .
POLYITAN 1 02 Jul 11:31:26 11:35:32 50° 73° (ENE) 11:39:40 437.675
PHONESAT 2.4 02 Jul 11:31:33 11:34:38 31° 161° (SSE) 11:37:46 2401.200-2431.200
DANDE 02 Jul 11:33:18 11:36:17 13° 296° (WNW) 11:38:39 436.750
Oscar 11 02 Jul 11:33:41 11:37:59 63° 286° (WNW) 11:42:16 145.826/435.025
AISAT 02 Jul 11:33:53 11:36:25 15° 90° (E) 11:39:07 437.250
AAUSAT CUBESAT 2 02 Jul 11:37:25 11:40:57 26° 291° (WNW) 11:44:25 437.432
CINEMA 3 02 Jul 11:37:35 11:41:12 28° 290° (WNW) 11:44:46 145.822/145.860
VERMONT LUNAR 02 Jul 11:49:55 11:53:01 57° 179° (S) 11:56:08 437.305
ESTCUBE 1 02 Jul 11:56:26 11:59:26 18° 91° (E) 12:02:35 437.505/2401.250
FUNcube-1 02 Jul 11:56:27 12:00:36 60° 286° (WNW) 12:04:47 145.935
BUGSAT 1 02 Jul 11:57:44 12:01:56 62° 74° (ENE) 12:06:06 437.445
HUMSAT D 02 Jul 11:58:43 12:02:50 63° 101° (E) 12:06:59 437.325/437.525
CUBEBUG 1 02 Jul 11:59:47 12:02:20 16° 90° (E) 12:05:03 437.445
QB50P2 02 Jul 12:01:24 12:05:39 75° 258° (WSW) 12:09:55 145.880/145.840
UWE-3 02 Jul 12:02:19 12:06:15 39° 288° (WNW) 12:10:13 435.000/436.395/437.385
COMPASS 1 02 Jul 12:02:30 12:04:39 13° 296° (WNW) 12:06:37 437.405
POPSAT HIP 1 02 Jul 12:02:46 12:07:02 75° 257° (WSW) 12:11:17 437.405
DELFI C3 02 Jul 12:10:07 12:13:48 33° 289° (WNW) 12:17:26 145.870
ANTELSAT 02 Jul 12:10:35 12:14:15 26° 265° (W) 12:17:50 437.575/2403.000
